Regional Weather Roundup
Issued by NWS

Home | Current Version | Previous Version | Graphics & Text | Print | Product List | Glossary On
Versions: 1 2 3 4 5 6 7 8 9 10 11 12 13 14 15 16 17 18 19 20 21 22 23 24 25 26 27 28 29 30 31 32 33 34 35 36 37 38 39 40 41 42 43 44 45 46 47 48 49 50
000
ASUS44 KMEG 301710
RWRTN
TENNESSEE HOURLY STATE WEATHER ROUNDUP
NATIONAL WEATHER SERVICE MEMPHIS TN
1200 PM CDT MON MAY 30 2016

TNZ002-004-019-021-049-052-054-088>092-301800-
WEST TENNESSEE

CITY           SKY/WX    TMP DP  RH WIND       PRES   REMARKS
MEMPHIS INTL   MOSUNNY   88  63  43 E7        30.05F
NWS MEMPHIS      N/A     87 N/A N/A MISG        N/A
JACKSON        MOSUNNY   85  58  39 E5        30.06F
DYERSBURG      SUNNY     84  61  45 SE7       30.05F
UNION CITY     MOSUNNY   84  63  48 VRB3      30.05F
PARIS          MOSUNNY   82  59  44 SE6       30.07S
LEXINGTON      SUNNY     82  61  47 NE5       30.05F
$$

TNZ008-025-027-028-033-062-065-066-301800-
NORTH MIDDLE TENNESSEE

CITY           SKY/WX    TMP DP  RH WIND       PRES   REMARKS
NASHVILLE      MOSUNNY   86  60  41 E7        30.05F
CLARKSVILLE    SUNNY     85  58  39 VRB6      30.05F
SMYRNA         SUNNY     87  62  42 N8        30.05F
COOKEVILLE     MOSUNNY   84  66  54 NW9       30.04F
CROSSVILLE     PTSUNNY   82  60  47 N9        30.08F
$$

TNZ061-075-076-078-094-096-097-301800-
SOUTH MIDDLE TENNESSEE

CITY           SKY/WX    TMP DP  RH WIND       PRES   REMARKS
FAYETTEVILLE   MOSUNNY   84  63  48 CALM      30.04F
TULLAHOMA      MOSUNNY   81  63  54 N6        30.06F
WINCHESTER     MOSUNNY   84  63  48 N7        30.04F
MCMINNVILLE    MOSUNNY   84  64  51 NW6       30.05F
COLUMBIA       PTSUNNY   84  66  54 E6        30.04F
SHELBYVILLE    MOSUNNY   86  64  48 N8        30.05F
$$

TNZ017-018-042-046-047-301800-
NORTHEAST TENNESSEE

CITY           SKY/WX    TMP DP  RH WIND       PRES   REMARKS
TRI CITIES     MOSUNNY   81  63  54 W6        30.05F
$$

TNZ012-013-036-069-073-074-301800-
CENTRAL EAST TENNESSEE

CITY           SKY/WX    TMP DP  RH WIND       PRES   REMARKS
KNOXVILLE      MOSUNNY   83  64  52 E5        30.02F
OAK RIDGE      MOSUNNY   84  63  49 CALM      30.03F
GATLINBURG       N/A     84  63  48 NW7       30.02F
$$

TNZ083-085-099-301800-
SOUTHEAST TENNESSEE

CITY           SKY/WX    TMP DP  RH WIND       PRES   REMARKS
CHATTANOOGA    PTSUNNY   88  62  41 NW5       30.01F
$$

SKY/WX REPORTED AS FAIR MEANS FEW OR NO CLOUDS BELOW
12 THOUSAND FEET.




USA.gov is the U.S. government's official web portal to all federal, state and local government web resources and services.